Content
SEND FEEDBACK

Daily
Averages
Monthly
Summary
United States of America

ST. LOUIS, MISSOURI


Home > North America > United States > Missouri
Elevation: 163 meters     Latitude: 38 45N     Longitude: 090 22W

WEATHER
 
SELECT A DAY
Number of Records: 196,446;   Date Range: 1/1/95 - 8/12/14
 
SHARE

PRINT THIS DATA

[ ← Previous Day ]
WEATHER ALMANAC - 22 JUNE, 2013
[ Next Day → ]
[ °F ]   °C
Weather ElementAverageHighLow
Temperature25 °C33 °C (1:11 pm)21.7 °C (11:54 pm)
Dewpoint19.4 °C23.3 °C (11:54 am)16.7 °C (10:54 pm)
Humidity71.3 %81 % (3:54 pm)52 % (1:11 pm)
Barometer1016.6 hPa1017.9 hPa (11:54 am)1015.2 hPa (3:54 am)
Wind Speed14 km/h24.1 km/h (1:39 pm)
Wind Gust37 km/h (1:39 pm)
Weather ElementAverage
Visibility15.6 km
Wind DirectionSSE (159.3 °)

Weather ElementTotal
Precipitation---
Cooling Degree Days9.1 (Base 18.3)
Growing Degree Days17.4 (Base 10)
Averaged from 29 records on 22 June, 2013
WEATHER CONDITIONS BREAKOUT
WIND DIRECTION BREAKOUT
WEATHER BY HOUR - 22 JUNE, 2013
[ °F ]   °C
Local TimeTemperatureDewpointHumidityBarometerVisibilityWind DirectionWind SpeedGust SpeedPrecipitationEventsConditions
1:54 AM25.6 °C20 °C71 %1016.3 hPa16.1 kmCalmClear
2:54 AM25 °C19.4 °C71 %1015.6 hPa16.1 kmSSW (200°)11.1 km/hClear
3:54 AM25.6 °C19.4 °C68 %1015.2 hPa16.1 kmSSW (200°)14.8 km/hClear
4:54 AM25.6 °C19.4 °C68 %1016.3 hPa16.1 kmCalmClear
5:54 AM25 °C19.4 °C71 %1016.9 hPa16.1 kmCalmScattered Clouds
6:54 AM24.4 °C20 °C76 %1017.3 hPa16.1 kmSSW (200°)5.6 km/hMostly Cloudy
7:54 AM25 °C20 °C74 %1017.6 hPa16.1 kmSE (140°)5.6 km/hScattered Clouds
8:54 AM27.8 °C21.7 °C69 %1017.6 hPa16.1 kmSSW (210°)16.7 km/hClear
9:54 AM28.3 °C22.2 °C69 %1017.3 hPa16.1 kmSSW (210°)20.4 km/h29.6 km/hOvercast
10:54 AM29.4 °C22.8 °C67 %1017.3 hPa16.1 kmSouth (190°)11.1 km/hMostly Cloudy
11:54 AM31.1 °C23.3 °C63 %1017.9 hPa16.1 kmSW (230°)11.1 km/hClear
12:54 PM32.2 °C22.8 °C57 %1016.6 hPa16.1 kmSW (230°)14.8 km/hMostly Cloudy
1:11 PM33 °C22 °C52 %1017.3 hPa16.1 kmSW (230°)16.7 km/hThunderstormMostly Cloudy
1:39 PM27 °C19 °C61 %1017.6 hPa16.1 kmSSE (160°)24.1 km/h37 km/hThunderstormThunderstorm
1:54 PM23.9 °C17.8 °C69 %1016.9 hPa16.1 kmSSE (160°)18.5 km/h0 mmRain-ThunderstormLight Thunderstorms and Rain
2:13 PM23 °C19 °C78 %1017.9 hPa1.6 kmSSE (160°)16.7 km/h0 mmRain-ThunderstormLight Thunderstorms and Rain
2:20 PM23 °C19 °C78 %1016.9 hPa16.1 kmSouth (170°)22.2 km/h29.6 km/h0 mmRain-ThunderstormLight Rain
2:54 PM23.3 °C18.9 °C76 %1015.6 hPa16.1 kmSouth (190°)22.2 km/h0 mmThunderstormMostly Cloudy
3:14 PM23 °C19 °C78 %1015.6 hPa16.1 kmSouth (190°)18.5 km/hMostly Cloudy
3:54 PM22.8 °C19.4 °C81 %1016.6 hPa16.1 kmEast (90°)14.8 km/h0 mmOvercast
4:54 PM22.8 °C19.4 °C81 %1016.6 hPa16.1 kmSE (140°)20.4 km/h29.6 km/hOvercast
5:19 PM22 °C18 °C78 %1017.6 hPa16.1 kmSE (130°)18.5 km/h31.5 km/hThunderstormThunderstorm
5:54 PM22.2 °C17.2 °C73 %1015.9 hPa16.1 kmSSE (150°)16.7 km/h35.2 km/hOvercast
6:54 PM22.2 °C17.2 °C73 %1016.9 hPa16.1 kmSSE (150°)13 km/hOvercast
7:54 PM22.2 °C17.8 °C76 %1016.3 hPa16.1 kmSSE (150°)16.7 km/h25.9 km/hOvercast
8:54 PM22.8 °C17.2 °C71 %1015.9 hPa16.1 kmSouth (170°)16.7 km/hClear
9:54 PM22.2 °C17.2 °C73 %1016.3 hPa16.1 kmSouth (180°)16.7 km/hMostly Cloudy
10:54 PM22.2 °C16.7 °C71 %1016.9 hPa16.1 kmSSE (150°)5.6 km/hMostly Cloudy
11:54 PM21.7 °C17.2 °C75 %1015.2 hPa16.1 kmWSW (240°)14.8 km/hClear
Hourly data recorded from KSUS, located 0 kilometers away from St. Louis, Missouri







STORIES FROM OUR PARTNERS